When you browse on this site, cookies collect data to enhance your experience and personalize the content and advertising you see.
Visit our Privacy Policy to learn more. By continuing to use the site, you agree to this use of cookies and data.

Meteo pe oră la Dziennice

Astăzi, 24 Septembrie, Joi

Timp Temperatura Precipitaţii Vânt Presiune Umiditate
00:00 +18°C° 0 mm 3 m/s 746 mmHg 77%
01:00 +17°C° 0 mm 3 m/s 746 mmHg 77%
02:00 +17°C° 0 mm 3 m/s 746 mmHg 79%
03:00 +17°C° 0 mm 3 m/s 746 mmHg 81%
04:00 +16°C° 0 mm 3 m/s 746 mmHg 84%
05:00 +16°C° 0 mm 3 m/s 746 mmHg 84%
06:00 +17°C° 0 mm 3 m/s 746 mmHg 84%
07:00 +17°C° 0 mm 3 m/s 746 mmHg 84%
08:00 +19°C° 0.1 mm 3 m/s 746 mmHg 77%
09:00 +20°C° 0.1 mm 4 m/s 746 mmHg 70%
10:00 +22°C° 0.1 mm 4 m/s 747 mmHg 63%
11:00 +23°C° 0 mm 4 m/s 747 mmHg 57%
12:00 +25°C° 0 mm 4 m/s 747 mmHg 51%
13:00 +26°C° 0 mm 4 m/s 746 mmHg 45%
14:00 +26°C° 0 mm 4 m/s 747 mmHg 47%
15:00 +26°C° 0 mm 3 m/s 747 mmHg 49%
16:00 +25°C° 0 mm 2 m/s 747 mmHg 52%
17:00 +24°C° 0 mm 2 m/s 747 mmHg 56%
18:00 +21°C° 0 mm 2 m/s 747 mmHg 61%
19:00 +21°C° 0 mm 1 m/s 747 mmHg 65%
20:00 +20°C° 0 mm 1 m/s 747 mmHg 67%
21:00 +20°C° 0 mm 1 m/s 747 mmHg 70%
22:00 +19°C° 0 mm 1 m/s 747 mmHg 72%
23:00 +19°C° 0 mm 1 m/s 747 mmHg 73%

Mâine, 25 Septembrie, Vineri

Timp Temperatura Precipitaţii Vânt Presiune Umiditate
00:00 +19°C° 0 mm 1 m/s 746 mmHg 75%
01:00 +18°C° 0 mm 1 m/s 746 mmHg 76%
02:00 +17°C° 0 mm 2 m/s 745 mmHg 78%
03:00 +16°C° 0 mm 2 m/s 745 mmHg 80%
04:00 +16°C° 0 mm 3 m/s 744 mmHg 82%
05:00 +16°C° 0 mm 3 m/s 744 mmHg 80%
06:00 +17°C° 0 mm 4 m/s 743 mmHg 79%
07:00 +17°C° 0 mm 4 m/s 742 mmHg 78%
08:00 +19°C° 0 mm 5 m/s 742 mmHg 71%
09:00 +21°C° 0 mm 6 m/s 741 mmHg 65%
10:00 +23°C° 0 mm 7 m/s 741 mmHg 59%
11:00 +23°C° 0.1 mm 7 m/s 740 mmHg 58%
12:00 +23°C° 0.1 mm 8 m/s 740 mmHg 58%
13:00 +23°C° 0.1 mm 8 m/s 740 mmHg 57%
14:00 +22°C° 0.3 mm 7 m/s 740 mmHg 64%
15:00 +20°C° 0.3 mm 6 m/s 739 mmHg 72%
16:00 +19°C° 0.3 mm 6 m/s 739 mmHg 79%
17:00 +17°C° 0.7 mm 5 m/s 740 mmHg 82%
18:00 +17°C° 0.7 mm 4 m/s 740 mmHg 85%
19:00 +15°C° 0.7 mm 4 m/s 740 mmHg 89%
20:00 +14°C° 0 mm 3 m/s 740 mmHg 90%
21:00 +13°C° 0 mm 3 m/s 741 mmHg 91%
22:00 +14°C° 0 mm 2 m/s 741 mmHg 93%
23:00 +14°C° 0 mm 2 m/s 741 mmHg 93%

Poimâine, 26 Septembrie, Sâmbătă

Timp Temperatura Precipitaţii Vânt Presiune Umiditate
00:00 +13°C° 0 mm 2 m/s 741 mmHg 94%
01:00 +13°C° 0 mm 2 m/s 741 mmHg 95%
02:00 +13°C° 0 mm 2 m/s 741 mmHg 94%
03:00 +13°C° 0 mm 2 m/s 741 mmHg 94%
04:00 +12°C° 0 mm 3 m/s 741 mmHg 93%
05:00 +13°C° 0 mm 4 m/s 740 mmHg 92%
06:00 +13°C° 0 mm 4 m/s 740 mmHg 91%
07:00 +13°C° 0 mm 5 m/s 740 mmHg 90%
08:00 +15°C° 0 mm 5 m/s 739 mmHg 87%
09:00 +16°C° 0 mm 5 m/s 739 mmHg 85%
10:00 +17°C° 0 mm 5 m/s 739 mmHg 82%
11:00 +19°C° 0.1 mm 5 m/s 739 mmHg 79%
12:00 +20°C° 0.1 mm 5 m/s 739 mmHg 76%
13:00 +20°C° 0.1 mm 4 m/s 738 mmHg 72%
14:00 +20°C° 0.4 mm 5 m/s 738 mmHg 76%
15:00 +19°C° 0.4 mm 5 m/s 738 mmHg 80%
16:00 +19°C° 0.4 mm 5 m/s 739 mmHg 84%
17:00 +18°C° 0 mm 4 m/s 739 mmHg 87%
18:00 +17°C° 0 mm 3 m/s 739 mmHg 89%
19:00 +17°C° 0 mm 3 m/s 740 mmHg 92%
20:00 +16°C° 0 mm 2 m/s 740 mmHg 92%
21:00 +16°C° 0 mm 2 m/s 741 mmHg 93%
22:00 +15°C° 0 mm 1 m/s 741 mmHg 93%
23:00 +15°C° 0.9 mm 2 m/s 741 mmHg 94%

27 Septembrie, Duminică

Timp Temperatura Precipitaţii Vânt Presiune Umiditate
00:00 +15°C° 0.9 mm 2 m/s 741 mmHg 95%
01:00 +14°C° 0.9 mm 3 m/s 741 mmHg 95%
02:00 +14°C° 0.5 mm 3 m/s 741 mmHg 94%
03:00 +14°C° 0.5 mm 3 m/s 740 mmHg 92%
04:00 +16°C° 0.5 mm 3 m/s 740 mmHg 91%
05:00 +15°C° 0.1 mm 4 m/s 740 mmHg 85%
06:00 +16°C° 0.1 mm 5 m/s 740 mmHg 80%
07:00 +17°C° 0.1 mm 6 m/s 739 mmHg 74%
08:00 +17°C° 0 mm 6 m/s 739 mmHg 71%
09:00 +18°C° 0 mm 7 m/s 739 mmHg 68%
10:00 +20°C° 0 mm 8 m/s 739 mmHg 66%
11:00 +20°C° 0 mm 8 m/s 739 mmHg 63%
12:00 +21°C° 0 mm 8 m/s 739 mmHg 60%
13:00 +21°C° 0 mm 8 m/s 739 mmHg 58%
14:00 +20°C° 0 mm 7 m/s 739 mmHg 59%
15:00 +20°C° 0 mm 7 m/s 739 mmHg 60%
16:00 +19°C° 0 mm 6 m/s 739 mmHg 62%
17:00 +19°C° 0 mm 6 m/s 740 mmHg 65%
18:00 +17°C° 0 mm 6 m/s 740 mmHg 69%
19:00 +17°C° 0 mm 6 m/s 740 mmHg 73%
20:00 +17°C° 0 mm 6 m/s 740 mmHg 75%
21:00 +16°C° 0 mm 6 m/s 740 mmHg 78%
22:00 +16°C° 0 mm 5 m/s 740 mmHg 80%
23:00 +15°C° 0 mm 5 m/s 741 mmHg 82%

28 Septembrie, Luni

Timp Temperatura Precipitaţii Vânt Presiune Umiditate
00:00 +15°C° 0 mm 5 m/s 741 mmHg 83%
01:00 +15°C° 0 mm 5 m/s 741 mmHg 84%
02:00 +14°C° 0 mm 6 m/s 741 mmHg 82%
03:00 +13°C° 0 mm 6 m/s 741 mmHg 79%
04:00 +13°C° 0 mm 6 m/s 742 mmHg 77%
05:00 +11°C° 0 mm 6 m/s 742 mmHg 76%
06:00 +11°C° 0 mm 6 m/s 742 mmHg 75%
07:00 +12°C° 0 mm 5 m/s 743 mmHg 74%
08:00 +11°C° 0 mm 6 m/s 743 mmHg 73%
09:00 +11°C° 0 mm 6 m/s 743 mmHg 71%
10:00 +11°C° 0 mm 6 m/s 744 mmHg 70%
11:00 +11°C° 0 mm 6 m/s 744 mmHg 72%
12:00 +10°C° 0 mm 6 m/s 744 mmHg 74%
13:00 +10°C° 0 mm 6 m/s 745 mmHg 77%
14:00 +9°C° 0.3 mm 6 m/s 745 mmHg 79%
15:00 +9°C° 0.3 mm 6 m/s 745 mmHg 82%
16:00 +9°C° 0.3 mm 6 m/s 745 mmHg 84%
17:00 +9°C° 0.6 mm 6 m/s 745 mmHg 84%
18:00 +9°C° 0.6 mm 6 m/s 745 mmHg 84%
19:00 +9°C° 0.6 mm 6 m/s 746 mmHg 84%
20:00 +9°C° 0.2 mm 6 m/s 746 mmHg 85%
21:00 +9°C° 0.2 mm 6 m/s 746 mmHg 86%
22:00 +9°C° 0.2 mm 6 m/s 746 mmHg 86%
23:00 +9°C° 0.2 mm 5 m/s 746 mmHg 86%

29 Septembrie, Marţi

Timp Temperatura Precipitaţii Vânt Presiune Umiditate
00:00 +9°C° 0.2 mm 5 m/s 746 mmHg 87%
01:00 +10°C° 0.2 mm 4 m/s 746 mmHg 87%
02:00 +8°C° 0.1 mm 4 m/s 747 mmHg 87%
03:00 +8°C° 0.1 mm 4 m/s 747 mmHg 88%
04:00 +8°C° 0.1 mm 4 m/s 747 mmHg 88%
05:00 +8°C° 0.1 mm 4 m/s 747 mmHg 87%
06:00 +10°C° 0.1 mm 4 m/s 747 mmHg 86%
07:00 +10°C° 0.1 mm 4 m/s 747 mmHg 85%
08:00 +10°C° 0 mm 4 m/s 748 mmHg 84%
09:00 +11°C° 0 mm 4 m/s 748 mmHg 83%
10:00 +11°C° 0 mm 4 m/s 748 mmHg 81%
11:00 +12°C° 0.2 mm 3 m/s 748 mmHg 78%
12:00 +13°C° 0.2 mm 3 m/s 748 mmHg 74%
13:00 +13°C° 0.2 mm 3 m/s 748 mmHg 71%
14:00 +14°C° 0.1 mm 2 m/s 748 mmHg 71%
15:00 +14°C° 0.1 mm 2 m/s 748 mmHg 71%
16:00 +14°C° 0.1 mm 2 m/s 749 mmHg 71%
17:00 +13°C° 0.1 mm 1 m/s 749 mmHg 76%
18:00 +12°C° 0.1 mm 1 m/s 749 mmHg 80%
19:00 +12°C° 0.1 mm 1 m/s 749 mmHg 84%
20:00 +11°C° 0 mm 1 m/s 749 mmHg 86%
21:00 +11°C° 0 mm 1 m/s 750 mmHg 88%
22:00 +9°C° 0 mm 2 m/s 750 mmHg 90%
23:00 +9°C° 0 mm 2 m/s 750 mmHg 91%
Arată mai mult